�������l�o���
Date,Time,MP-1(��Sv/h),MP-2(��Sv/h),MP-3(��Sv/h),MP-4(��Sv/h),MP-5(��Sv/h),MP-6(��Sv/h),MP-7(��Sv/h),MP-8(��Sv/h),����,����(m/s),���J
2016/09/22,00:00,1.108,1.845,1.338,2.019,1.379,0.589,1.051,0.966,�k��,4.7,��
2016/09/22,00:10,1.108,1.846,1.337,2.021,1.378,0.589,1.050,0.967,�k��,4.6,��
2016/09/22,00:20,1.107,1.845,1.335,2.017,1.378,0.588,1.051,0.967,�k��,3.5,��
2016/09/22,00:30,1.109,1.842,1.336,2.024,1.378,0.590,1.050,0.968,�k��,4.1,��
2016/09/22,00:40,1.108,1.845,1.333,2.020,1.378,0.591,1.052,0.968,�k��,4.4,��
2016/09/22,00:50,1.108,1.844,1.337,2.022,1.378,0.589,1.051,0.968,�k��,3.9,��
2016/09/22,01:00,1.109,1.846,1.335,2.024,1.378,0.588,1.050,0.968,���k��,3.4,��
2016/09/22,01:10,1.108,1.844,1.334,2.022,1.376,0.588,1.051,0.968,���k��,3.0,��
2016/09/22,01:20,1.107,1.844,1.338,2.022,1.380,0.591,1.051,0.968,��,2.5,��
2016/09/22,01:30,1.109,1.847,1.339,2.020,1.377,0.589,1.052,0.969,���쐼,1.5,��
2016/09/22,01:40,1.108,1.848,1.336,2.020,1.379,0.591,1.052,0.969,���k��,1.9,��
2016/09/22,01:50,1.111,1.848,1.338,2.019,1.380,0.590,1.052,0.969,�k��,2.4,��
2016/09/22,02:00,1.108,1.846,1.338,2.018,1.380,0.592,1.053,0.971,���k��,2.3,��
2016/09/22,02:10,1.109,1.848,1.338,2.018,1.377,0.590,1.050,0.970,�k��,2.5,��
2016/09/22,02:20,1.108,1.851,1.338,2.020,1.378,0.589,1.051,0.970,�k��,3.2,��
2016/09/22,02:30,1.110,1.849,1.339,2.018,1.381,0.590,1.051,0.969,�k��,4.2,��
2016/09/22,02:40,1.109,1.850,1.338,2.023,1.381,0.590,1.053,0.969,�k�k��,4.7,��
2016/09/22,02:50,1.110,1.849,1.339,2.021,1.381,0.591,1.053,0.970,�k�k��,4.5,��
2016/09/22,03:00,1.111,1.848,1.340,2.022,1.382,0.591,1.051,0.970,�k�k��,4.6,��
2016/09/22,03:10,1.110,1.849,1.339,2.020,1.381,0.589,1.052,0.968,�k�k��,4.9,��
2016/09/22,03:20,1.111,1.849,1.341,2.024,1.383,0.590,1.054,0.970,�k�k��,4.9,��
2016/09/22,03:30,1.110,1.851,1.341,2.023,1.385,0.592,1.054,0.970,�k�k��,5.5,��
2016/09/22,03:40,1.110,1.851,1.340,2.021,1.382,0.591,1.051,0.969,�k�k��,5.8,��
2016/09/22,03:50,1.111,1.849,1.340,2.025,1.383,0.591,1.052,0.973,�k�k��,5.8,��
2016/09/22,04:00,1.108,1.852,1.339,2.024,1.384,0.590,1.054,0.968,�k�k��,6.0,��
2016/09/22,04:10,1.111,1.849,1.340,2.024,1.382,0.591,1.053,0.969,�k�k��,5.5,��
2016/09/22,04:20,1.107,1.850,1.339,2.024,1.383,0.592,1.053,0.969,�k�k��,5.6,��
2016/09/22,04:30,1.111,1.853,1.341,2.027,1.383,0.591,1.052,0.970,�k�k��,4.9,��
2016/09/22,04:40,1.111,1.853,1.340,2.024,1.385,0.590,1.052,0.970,�k�k��,4.9,��
2016/09/22,04:50,1.111,1.850,1.342,2.025,1.383,0.591,1.052,0.970,�k�k��,4.5,��
2016/09/22,05:00,1.111,1.853,1.340,2.024,1.385,0.591,1.052,0.971,�k�k��,4.9,��
2016/09/22,05:10,1.109,1.852,1.339,2.024,1.385,0.591,1.053,0.969,�k�k��,5.3,��
2016/09/22,05:20,1.111,1.852,1.341,2.027,1.383,0.589,1.052,0.972,�k�k��,5.8,��
2016/09/22,05:30,1.109,1.853,1.340,2.025,1.386,0.591,1.053,0.972,�k�k��,5.8,��
2016/09/22,05:40,1.110,1.849,1.341,2.025,1.382,0.591,1.052,0.970,�k�k��,5.5,��
2016/09/22,05:50,1.107,1.853,1.340,2.026,1.383,0.591,1.054,0.972,�k�k��,5.2,��
2016/09/22,06:00,1.112,1.852,1.342,2.026,1.383,0.592,1.055,0.970,�k�k��,5.2,��
2016/09/22,06:10,1.109,1.853,1.341,2.027,1.384,0.591,1.053,0.972,�k�k��,5.5,��
2016/09/22,06:20,1.110,1.854,1.343,2.026,1.387,0.590,1.053,0.971,�k�k��,6.3,��
2016/09/22,06:30,1.112,1.852,1.341,2.026,1.385,0.590,1.053,0.970,�k�k��,5.8,��
2016/09/22,06:40,1.111,1.851,1.341,2.026,1.388,0.591,1.053,0.971,�k�k��,7.4,��
2016/09/22,06:50,1.112,1.852,1.342,2.026,1.388,0.591,1.052,0.969,�k�k��,6.4,��
2016/09/22,07:00,1.112,1.854,1.341,2.024,1.387,0.592,1.056,0.972,�k�k��,7.2,��
2016/09/22,07:10,1.112,1.854,1.342,2.027,1.386,0.592,1.055,0.970,�k�k��,6.7,��
2016/09/22,07:20,1.112,1.857,1.344,2.027,1.388,0.590,1.054,0.972,�k�k��,6.0,��
2016/09/22,07:30,1.109,1.853,1.341,2.027,1.387,0.592,1.053,0.972,�k�k��,5.5,��
2016/09/22,07:40,1.113,1.855,1.342,2.026,1.388,0.591,1.050,0.971,�k�k��,5.8,��
2016/09/22,07:50,1.113,1.855,1.338,2.028,1.388,0.590,1.051,0.971,�k�k��,5.6,��
2016/09/22,08:00,1.113,1.855,1.340,2.029,1.388,0.588,1.051,0.970,�k�k��,5.8,��
2016/09/22,08:10,1.111,1.856,1.343,2.028,1.387,0.590,1.051,0.969,�k�k��,5.0,��
2016/09/22,08:20,1.112,1.855,1.341,2.029,1.387,0.590,1.051,0.972,�k�k��,4.4,��
2016/09/22,08:30,1.113,1.854,1.344,2.029,1.388,0.591,1.051,0.971,�k�k��,4.2,��
2016/09/22,08:40,1.114,1.853,1.347,2.027,1.388,0.590,1.053,0.968,�k�k��,4.4,��
2016/09/22,08:50,1.113,1.853,1.346,2.032,1.386,0.590,1.052,0.973,�k�k��,4.1,��
2016/09/22,09:00,1.115,1.853,1.340,2.034,1.387,0.590,1.052,0.970,�k�k��,4.2,��
2016/09/22,09:10,1.109,1.853,1.343,2.028,1.387,0.588,1.052,0.970,�k�k��,3.5,��
2016/09/22,09:20,1.112,1.852,1.343,2.033,1.386,0.590,1.053,0.970,�k,2.7,��
2016/09/22,09:30,1.111,1.852,1.343,2.031,1.386,0.589,1.055,0.972,�k,4.9,��
2016/09/22,09:40,1.113,1.853,1.343,2.029,1.386,0.588,1.052,0.971,�k,4.6,�L
2016/09/22,09:50,1.110,1.851,1.340,2.032,1.382,0.590,1.054,0.971,�k,4.4,�L
2016/09/22,10:00,1.108,1.846,1.337,2.026,1.383,0.589,1.048,0.969,�k,4.5,�L
2016/09/22,10:10,1.109,1.845,1.335,2.029,1.383,0.589,1.052,0.969,�k,3.9,�L
2016/09/22,10:20,1.109,1.842,1.336,2.028,1.382,0.589,1.053,0.967,�k,4.1,��
2016/09/22,10:30,1.106,1.842,1.338,2.029,1.382,0.590,1.048,0.966,�k,4.1,��
2016/09/22,10:40,1.109,1.843,1.337,2.025,1.383,0.589,1.050,0.966,�k�k��,4.1,��
2016/09/22,10:50,1.110,1.844,1.339,2.030,1.385,0.590,1.049,0.969,�k�k��,4.4,�L
2016/09/22,11:00,1.103,1.835,1.334,2.022,1.373,0.586,1.048,0.965,�k,3.8,�L
2016/09/22,11:10,1.098,1.822,1.328,2.010,1.364,0.587,1.043,0.961,�k�k��,3.0,�L
2016/09/22,11:20,1.090,1.805,1.318,2.003,1.353,0.583,1.039,0.961,�k�k��,4.6,�L
2016/09/22,11:30,1.087,1.802,1.314,1.996,1.352,0.583,1.037,0.958,�k,4.1,�L
2016/09/22,11:40,1.087,1.804,1.319,1.996,1.354,0.584,1.036,0.960,�k,2.2,�L
2016/09/22,11:50,1.088,1.808,1.317,1.994,1.354,0.582,1.036,0.958,�k�k��,2.7,�L
2016/09/22,12:00,1.088,1.807,1.318,1.997,1.352,0.583,1.034,0.958,�k,3.5,�L
2016/09/22,12:10,1.088,1.805,1.318,1.993,1.353,0.581,1.035,0.957,�k�k��,3.0,�L
2016/09/22,12:20,1.086,1.804,1.313,1.992,1.352,0.582,1.035,0.959,�k,3.0,�L
2016/09/22,12:30,1.086,1.803,1.313,1.989,1.349,0.583,1.036,0.958,�k�k��,3.3,�L
2016/09/22,12:40,1.083,1.799,1.313,1.986,1.346,0.581,1.032,0.955,�k�k��,4.5,�L
2016/09/22,12:50,1.079,1.791,1.308,1.976,1.339,0.580,1.030,0.957,�k��,6.0,�L
2016/09/22,13:00,1.076,1.780,1.304,1.968,1.336,0.580,1.029,0.954,�k,3.4,�L
2016/09/22,13:10,1.074,1.776,1.302,1.965,1.335,0.579,1.031,0.953,-,CALM,�L
2016/09/22,13:20,1.072,1.777,1.301,1.965,1.336,0.579,1.030,0.954,�k,4.2,�L
2016/09/22,13:30,1.075,1.783,1.306,1.969,1.339,0.581,1.029,0.953,�k,4.4,�L
2016/09/22,13:40,1.076,1.787,1.307,1.973,1.338,0.579,1.030,0.955,�k,5.2,�L
2016/09/22,13:50,1.078,1.789,1.308,1.975,1.339,0.580,1.029,0.954,�k,5.2,�L
2016/09/22,14:00,1.077,1.788,1.306,1.977,1.340,0.581,1.029,0.955,�k,5.0,�L
2016/09/22,14:10,1.077,1.790,1.305,1.978,1.341,0.581,1.030,0.954,�k,4.9,�L
2016/09/22,14:20,1.080,1.791,1.305,1.978,1.342,0.581,1.032,0.959,�k�k��,5.2,�L
2016/09/22,14:30,1.081,1.791,1.301,1.980,1.340,0.581,1.032,0.956,�k�k��,4.1,�L
2016/09/22,14:40,1.079,1.788,1.303,1.978,1.341,0.582,1.029,0.955,�k�k��,4.1,�L
2016/09/22,14:50,1.080,1.789,1.302,1.977,1.338,0.581,1.029,0.955,�k,4.6,�L
2016/09/22,15:00,1.079,1.787,1.304,1.979,1.336,0.581,1.030,0.955,�k�k��,5.2,�L
2016/09/22,15:10,1.077,1.787,1.302,1.978,1.337,0.581,1.031,0.954,�k�k��,6.0,�L
2016/09/22,15:20,1.079,1.789,1.300,1.976,1.338,0.582,1.030,0.955,�k�k��,5.2,�L
2016/09/22,15:30,1.077,1.788,1.301,1.976,1.339,0.580,1.030,0.955,�k�k��,5.5,�L
2016/09/22,15:40,1.078,1.787,1.300,1.974,1.336,0.581,1.031,0.954,�k�k��,6.3,��
2016/09/22,15:50,1.078,1.789,1.301,1.976,1.336,0.580,1.029,0.957,�k�k��,6.1,�L
2016/09/22,16:00,1.078,1.788,1.302,1.974,1.337,0.581,1.030,0.955,�k�k��,6.1,�L
2016/09/22,16:10,1.075,1.781,1.300,1.970,1.333,0.580,1.027,0.953,�k�k��,6.4,�L
2016/09/22,16:20,1.074,1.783,1.296,1.971,1.331,0.580,1.026,0.954,�k�k��,5.5,�L
2016/09/22,16:30,1.069,1.781,1.299,1.970,1.334,0.578,1.027,0.950,�k�k��,6.3,�L
2016/09/22,16:40,1.071,1.775,1.294,1.961,1.327,0.580,1.026,0.951,�k�k��,6.4,�L
2016/09/22,16:50,1.067,1.771,1.295,1.954,1.323,0.578,1.026,0.950,�k�k��,6.3,�L
2016/09/22,17:00,1.063,1.758,1.287,1.950,1.315,0.576,1.020,0.947,�k��,6.0,�L
2016/09/22,17:10,1.060,1.747,1.283,1.942,1.310,0.575,1.018,0.946,�k��,7.1,�L
2016/09/22,17:20,1.062,1.751,1.278,1.941,1.309,0.576,1.021,0.947,�k�k��,8.0,�L
2016/09/22,17:30,1.061,1.756,1.284,1.948,1.315,0.576,1.021,0.947,�k�k��,8.0,�L
2016/09/22,17:40,1.065,1.761,1.285,1.951,1.314,0.577,1.021,0.947,�k�k��,8.3,�L
2016/09/22,17:50,1.066,1.768,1.285,1.955,1.312,0.577,1.023,0.949,�k�k��,8.9,�L
2016/09/22,18:00,1.067,1.764,1.287,1.955,1.315,0.576,1.021,0.949,�k�k��,7.5,�L
2016/09/22,18:10,1.070,1.765,1.287,1.957,1.319,0.577,1.023,0.949,�k�k��,7.5,�L
2016/09/22,18:20,1.071,1.769,1.287,1.958,1.316,0.579,1.022,0.952,�k�k��,9.1,�L
2016/09/22,18:30,1.063,1.754,1.282,1.946,1.309,0.578,1.020,0.950,�k�k��,7.7,�L
2016/09/22,18:40,1.063,1.757,1.284,1.947,1.310,0.577,1.019,0.948,�k�k��,9.1,�L
2016/09/22,18:50,1.065,1.760,1.286,1.951,1.311,0.578,1.020,0.949,�k�k��,8.8,�L
2016/09/22,19:00,1.065,1.759,1.284,1.951,1.312,0.577,1.019,0.950,�k�k��,8.2,�L
2016/09/22,19:10,1.063,1.760,1.283,1.948,1.309,0.578,1.019,0.949,�k�k��,8.8,�L
2016/09/22,19:20,1.065,1.758,1.283,1.948,1.310,0.577,1.022,0.949,�k�k��,9.7,�L
2016/09/22,19:30,1.064,1.756,1.280,1.948,1.307,0.576,1.023,0.949,�k�k��,11.0,�L
2016/09/22,19:40,1.066,1.763,1.283,1.953,1.310,0.578,1.021,0.949,�k�k��,8.3,��
2016/09/22,19:50,1.066,1.768,1.286,1.957,1.312,0.578,1.023,0.950,�k�k��,7.8,�L
2016/09/22,20:00,1.066,1.764,1.286,1.955,1.314,0.578,1.024,0.949,�k�k��,8.8,�L
2016/09/22,20:10,1.062,1.751,1.279,1.948,1.302,0.577,1.019,0.950,�k�k��,8.6,�L
2016/09/22,20:20,1.059,1.747,1.275,1.939,1.300,0.576,1.019,0.949,�k�k��,8.8,�L
2016/09/22,20:30,1.061,1.750,1.274,1.940,1.297,0.575,1.016,0.944,�k�k��,8.8,�L
2016/09/22,20:40,1.060,1.750,1.274,1.937,1.297,0.575,1.017,0.945,�k�k��,10.1,�L
2016/09/22,20:50,1.058,1.752,1.274,1.942,1.302,0.577,1.016,0.949,�k�k��,10.8,�L
2016/09/22,21:00,1.066,1.758,1.276,1.947,1.302,0.577,1.020,0.949,�k�k��,10.0,�L
2016/09/22,21:10,1.066,1.762,1.279,1.951,1.303,0.579,1.020,0.949,�k�k��,10.4,��
2016/09/22,21:20,1.070,1.769,1.281,1.955,1.306,0.579,1.022,0.951,�k�k��,11.1,��
2016/09/22,21:30,1.073,1.777,1.285,1.957,1.313,0.579,1.022,0.949,�k�k��,10.2,��
2016/09/22,21:40,1.074,1.775,1.287,1.965,1.312,0.577,1.024,0.950,�k�k��,10.5,��
2016/09/22,21:50,1.075,1.776,1.289,1.964,1.315,0.580,1.024,0.952,�k�k��,10.5,��
2016/09/22,22:00,1.076,1.780,1.290,1.963,1.314,0.580,1.022,0.953,�k�k��,10.2,��
2016/09/22,22:10,1.079,1.777,1.288,1.961,1.315,0.578,1.025,0.949,�k�k��,11.0,��
2016/09/22,22:20,1.076,1.777,1.288,1.967,1.313,0.579,1.023,0.952,�k�k��,10.5,��
2016/09/22,22:30,1.077,1.778,1.287,1.964,1.312,0.578,1.022,0.953,�k�k��,9.4,��
2016/09/22,22:40,1.076,1.780,1.292,1.963,1.315,0.578,1.025,0.952,�k�k��,11.0,��
2016/09/22,22:50,1.077,1.783,1.294,1.965,1.317,0.581,1.025,0.952,�k�k��,10.1,��
2016/09/22,23:00,1.080,1.782,1.293,1.968,1.318,0.581,1.027,0.953,�k�k��,9.4,��
2016/09/22,23:10,1.080,1.787,1.293,1.971,1.321,0.581,1.027,0.952,�k�k��,10.4,��
2016/09/22,23:20,1.081,1.789,1.296,1.975,1.322,0.579,1.026,0.954,�k�k��,9.4,��
2016/09/22,23:30,1.084,1.793,1.299,1.976,1.324,0.582,1.027,0.954,�k�k��,10.0,��
2016/09/22,23:40,1.086,1.792,1.300,1.977,1.327,0.582,1.028,0.954,�k�k��,10.0,��
2016/09/22,23:50,1.087,1.794,1.301,1.976,1.327,0.582,1.028,0.955,�k��,9.3,��
